Terminal Aerodrome Forecast
Issued by NWS

Home | Current Version | Previous Version | Text Only | Print | Product List | Glossary On
Versions: 1 2 3 4 5 6 7 8 9 10 11 12 13 14 15 16 17 18 19 20 21 22 23 24 25 26 27 28 29 30 31 32 33 34 35 36 37 38 39 40 41 42 43 44 45 46 47 48 49 50
000
FTUS44 KHGX 292325
TAFCXO
TAF
KCXO 292325Z 3000/3024 17004KT P6SM SCT250
     FM301000 18003KT 6SM BR SCT015
      TEMPO 3011/3013 SCT007 BKN015
     FM301400 20008KT P6SM SCT025
     FM301800 18010KT P6SM VCTS BKN040CB
     FM302300 17008KT P6SM SCT050 BKN120=

USA.gov is the U.S. government's official web portal to all federal, state and local government web resources and services.